Weather in Pohrebyshche

Ukraine / Vinnytsia Region     49°29′13″N   29°16′24″E
temp.,
°C
wind,
m/s
gust,
m/s
humid.,
%
clouds,
%
prec.,
mm/h
press.,
hPa
HPBL,
m
26 july, mon
mon2600:00+19se226173 0.0 102028
03:00+18ese226596 0.0 102019
06:00+19se3656100 0.0 1020100
09:00+21se367064 0.0 1020199
12:00+27sse45466 0.0 10201452
15:00+27s24396 0.0 10192157
18:00+25ese3456100 0.0 1019157
21:00+20e34745 0.0 101953
27 july, tue
tue2700:00+19se38715 0.0 1019129
03:00+18sse34705 0.0 102060
06:00+17se35725 0.0 101981
09:00+23sse47605 0.0 1018301
12:00+28s68434 0.0 10181448
15:00+30s673971 0.0 10171780
18:00+29s46485 0.0 1016900
21:00+23s35677 0.0 101660
28 july, wed
wed2800:00+21ssw498196 0.8 1016152
03:00+20ssw348398 0.8 101559
06:00+19sw22865 0.4 101428
09:00+23wsw33753 1.8 1015298
12:00+27wnw3366100 0.4 1014574
15:00+28wnw445621 3.1 10141532
18:00+29nw445626 0.1 10131611
21:00+23nw33745 0.1 101427
29 july, thu
thu2900:00+21nnw00770 0.0 101511
03:00+20ssw11785 0.0 101411
06:00+20s228026 0.0 101312
09:00+25s236831 0.0 1013332
12:00+28s345640 0.0 10131019
15:00+31sw344864 0.0 10121802
18:00+30sw56551 0.0 10091256
21:00+24wnw61174100 0.2 1011283
30 july, fri
fri3000:00+19sse1195100 1.1 101220
03:00+19wnw2395100 1.1 101262
06:00+18wnw3796100 0.0 1012150
09:00+22wnw34803 0.0 1012495
12:00+26wnw346111 0.0 10121254
15:00+29w34490 0.0 10111682
18:00+28wnw33480 0.0 10101557
21:00+23w11650 0.0 101011